Location: Albuquerque Trailhead
(34.7934°N, 106.3736°W)
Time: 13:01:05
(UTC+00:00)

ASTRO E2 - Pass Details

Date: 20 June 2021
Orbit: 507 x 513 km, 31.4° (Epoch: 30 July)

Event Time Altitude Azimuth Distance (km) Brightness Sun altitude
Rises 03:21:46 0° 246° (WSW) 2,600 6.7 -11.0°
Reaches altitude 10° 03:24:04 10° 239° (WSW) 1,717 5.6 -11.4°
Maximum altitude 03:27:48 40° 169° (S) 753 3.1 -12.0°
Enters shadow 03:30:27 17° 106° (ESE) 1,333 4.2 -12.4°
